Location: Unspecified
(0.0000°N, 0.0000°E)
Time: 05:29:25
(UTC+00:00)

Courier 1B Rocket - Visible Passes

Search period start: 21 May 2026 00:00
Search period end: 31 May 2026 00:00
Orbit: 920 x 1201 km, 28.2° (Epoch: 20 May)

Date Brightness Start Highest point End Pass type
(mag) Time Alt. Az. Time Alt. Az. Time Alt. Az.
21 May 6.5 03:32:41 24° NNW 03:32:41 24° NNW 03:36:49 10° NNE visible
22 May 7.4 02:35:07 16° NNE 02:35:07 16° NNE 02:36:22 10° NE visible
22 May 7.2 04:22:58 10° NW 04:24:18 11° NNW 04:25:37 10° N visible
23 May 7.0 03:23:49 16° NNW 03:23:49 16° NNW 03:26:46 10° NNE visible
24 May 7.6 02:26:09 12° NNE 02:26:09 12° NNE 02:26:39 10° NNE visible
25 May 7.4 03:14:48 11° NNW 03:14:48 11° NNW 03:15:53 10° N visible
26 May 7.3 19:25:58 10° S 19:27:02 11° SSE 19:27:02 11° SSE visible
27 May 7.4 20:15:12 10° SSW 20:16:14 13° SSW 20:16:14 13° SSW visible
28 May 6.9 19:14:48 10° SSW 19:19:07 16° SSE 19:19:10 16° SSE visible
29 May 6.8 20:05:13 10° SSW 20:08:37 23° SSW 20:08:37 23° SSW visible
30 May 6.5 19:04:32 10° SSW 19:10:13 22° SSE 19:11:48 21° SE visible
30 May 7.3 20:56:38 10° SW 20:58:12 17° SW 20:58:12 17° SW visible
